Location: *
(51.8167°N, 12.5000°E)
Time: 13:37:26
(UTC+00:00)

SL-8 R/B - Pass Details

Date: 16 September 2019
Orbit: 657 x 667 km, 48.4° (Epoch: 20 October)

Event Time Altitude Azimuth Distance (km) Brightness Sun altitude
Rises 19:42:10 0° 252° (WSW) 2,984 7.6 -20.9°
Reaches altitude 10° 19:44:32 10° 248° (WSW) 2,074 6.7 -21.2°
Maximum altitude 19:49:12 55° 171° (S) 799 3.8 -21.8°
Enters shadow 19:49:21 54° 163° (SSE) 801 3.8 -21.8°
